Weather History for KMSS - September, 2012

Change the Weather History Date:

Saturday, September 29, 2012

  Actual Average Record
Temperature  
Mean Temperature 54 °F 53 °F  
Max Temperature 62 °F 64 °F 84 °F (1959)
Min Temperature 45 °F 42 °F 26 °F (1980)
Degree Days  
Heating Degree Days 11 12  
Month to date heating degree days 181 210  
Since 1 July heating degree days 204 285  
Cooling Degree Days 0 0  
Month to date cooling degree days 32 24  
Year to date cooling degree days 537 360  
Growing Degree Days 2 (Base 50)    
Moisture  
Dew Point 48 °F    
Average Humidity 82    
Maximum Humidity 100    
Minimum Humidity 64    
Precipitation  
Precipitation 0.00 in 0.13 in 1.06 in (2011)
Month to date precipitation 4.26 3.53  
Year to date precipitation 21.98 26.07  
Sea Level Pressure  
Sea Level Pressure 30.02 in    
Wind  
Wind Speed 6 mph (NE)    
Max Wind Speed 17 mph    
Max Gust Speed 21 mph    
Visibility 7 miles    
Events Fog    
T = Trace of Precipitation, MM = Missing Value Source: NWS Daily Summary

Daily Weather History Graph

Daily Weather History Graph

Search for Another Location

Airport or City:

Trip Planner

Search our weather history database for the weather conditions in past years. The results will help you decide how hot, cold, wet, or windy it might be!

Date:

Astronomy

Sep. 29, 2012 Rise Set
Actual Time 6:55 AM EDT 6:42 PM EDT
Civil Twilight 6:26 AM EDT 7:11 PM EDT
Nautical Twilight 5:52 AM EDT 7:45 PM EDT
Astronomical Twilight 5:17 AM EDT 8:20 PM EDT
Moon 6:11 PM EDT (9/29) 6:25 AM EDT (9/29)
Length of Visible Light 12h 45m
Length of Day
11h 47m
Full, 100% of the Moon is Illuminated
Sep 29
Full
Sep 29
Full
Oct 8
Last Quarter
Oct 15
New
Oct 21
First Quarter

Hourly Weather History & Observations

Time (EDT) Temp. Dew Point Humidity Pressure Visibility Wind Dir Wind Speed Gust Speed Precip Events Conditions
12:45 AM 44.6 °F 42.8 °F 93% 30.03 in 10.0 mi Calm Calm - N/A   Mostly Cloudy
12:53 AM 45.0 °F 43.0 °F 93% 30.04 in 10.0 mi Calm Calm - N/A   Overcast
1:45 AM 46.4 °F 44.6 °F 93% 30.03 in 10.0 mi Calm Calm - N/A   Overcast
1:53 AM 48.0 °F 46.0 °F 93% 30.04 in 10.0 mi Calm Calm - N/A   Overcast
1:59 AM 46.4 °F 46.4 °F 100% 30.03 in 1.2 mi Calm Calm - N/A   Overcast
2:07 AM 48.2 °F 46.4 °F 93% 30.03 in 0.2 mi Calm Calm - N/A Fog Fog
2:53 AM 50.0 °F 50.0 °F 100% 30.03 in 0.2 mi Calm Calm - N/A Fog Fog
3:14 AM 51.8 °F 51.8 °F 100% 30.02 in 1.0 mi Calm Calm - N/A   Overcast
3:33 AM 51.8 °F 50.0 °F 94% 30.02 in 2.0 mi NNW 3.5 mph - N/A   Overcast
3:43 AM 51.8 °F 50.0 °F 94% 30.02 in 3.0 mi Calm Calm - N/A   Overcast
3:53 AM 51.1 °F 50.0 °F 96% 30.03 in 4.0 mi Calm Calm - N/A   Overcast
4:49 AM 50.0 °F 48.2 °F 94% 30.02 in 5.0 mi Calm Calm - N/A   Overcast
4:53 AM 50.0 °F 48.9 °F 96% 30.03 in 5.0 mi Calm Calm - N/A   Overcast
5:04 AM 50.0 °F 48.2 °F 94% 30.02 in 4.0 mi North 4.6 mph - N/A   Overcast
5:33 AM 48.2 °F 48.2 °F 100% 30.03 in 3.0 mi Calm Calm - N/A   Overcast
5:42 AM 50.0 °F 48.2 °F 94% 30.03 in 4.0 mi Calm Calm - N/A   Overcast
5:51 AM 48.2 °F 48.2 °F 100% 30.03 in 4.0 mi Calm Calm - N/A   Overcast
5:53 AM 48.9 °F 48.0 °F 97% 30.04 in 4.0 mi North 3.5 mph - N/A   Overcast
6:14 AM 48.2 °F 46.4 °F 93% 30.04 in 6.0 mi Calm Calm - N/A   Mostly Cloudy
6:53 AM 48.0 °F 46.0 °F 93% 30.05 in 6.0 mi Calm Calm - N/A   Overcast
7:53 AM 48.0 °F 46.9 °F 96% 30.06 in 5.0 mi Calm Calm - N/A   Mostly Cloudy
8:53 AM 51.1 °F 48.0 °F 89% 30.06 in 6.0 mi North 5.8 mph - N/A   Overcast
9:04 AM 51.8 °F 48.2 °F 88% 30.05 in 7.0 mi NNE 8.1 mph - N/A   Overcast
9:53 AM 52.0 °F 48.9 °F 89% 30.06 in 7.0 mi NNE 10.4 mph - N/A   Overcast
10:16 AM 51.8 °F 48.2 °F 88% 30.05 in 7.0 mi NE 10.4 mph - N/A   Overcast
10:53 AM 54.0 °F 50.0 °F 86% 30.04 in 8.0 mi NNE 6.9 mph - N/A   Overcast
11:19 AM 55.4 °F 48.2 °F 77% 30.03 in 9.0 mi NE 8.1 mph - N/A   Overcast
11:53 AM 55.0 °F 48.9 °F 80% 30.04 in 9.0 mi NE 5.8 mph - N/A   Overcast
12:29 PM 55.4 °F 48.2 °F 77% 30.02 in 10.0 mi Variable 5.8 mph - N/A   Overcast
12:53 PM 55.9 °F 48.9 °F 77% 30.02 in 10.0 mi NE 8.1 mph - N/A   Overcast
1:32 PM 57.2 °F 48.2 °F 72% 30.01 in 10.0 mi North 5.8 mph - N/A   Overcast
1:53 PM 59.0 °F 50.0 °F 72% 30.00 in 10.0 mi NNE 6.9 mph - N/A   Scattered Clouds
2:53 PM 61.0 °F 48.9 °F 64% 29.99 in 10.0 mi East 6.9 mph - N/A   Mostly Cloudy
3:53 PM 59.0 °F 48.9 °F 69% 29.98 in 10.0 mi ENE 8.1 mph - N/A   Mostly Cloudy
4:01 PM 59.0 °F 48.2 °F 67% 29.97 in 10.0 mi ENE 11.5 mph - N/A   Overcast
4:53 PM 59.0 °F 48.9 °F 69% 29.98 in 10.0 mi ENE 12.7 mph - N/A   Overcast
5:53 PM 57.0 °F 48.9 °F 74% 29.99 in 10.0 mi ENE 13.8 mph - N/A   Overcast
6:53 PM 55.0 °F 48.0 °F 77% 29.99 in 10.0 mi NE 11.5 mph - N/A   Overcast
7:21 PM 53.6 °F 48.2 °F 82% 29.99 in 10.0 mi NE 11.5 mph 20.7 mph N/A   Overcast
7:53 PM 54.0 °F 48.0 °F 80% 30.01 in 10.0 mi NE 9.2 mph - N/A   Overcast
8:44 PM 53.6 °F 48.2 °F 82% 29.99 in 10.0 mi NE 8.1 mph - N/A   Overcast
8:53 PM 53.1 °F 46.9 °F 80% 30.00 in 10.0 mi NE 8.1 mph - N/A   Overcast
9:03 PM 53.6 °F 48.2 °F 82% 29.99 in 10.0 mi NE 10.4 mph - N/A   Overcast
9:53 PM 53.1 °F 48.0 °F 83% 29.99 in 10.0 mi NE 8.1 mph - N/A   Overcast
10:53 PM 52.0 °F 48.0 °F 86% 29.99 in 10.0 mi NE 9.2 mph - N/A   Overcast
11:11 PM 51.8 °F 48.2 °F 88% 29.97 in 10.0 mi NE 10.4 mph - N/A   Overcast
11:53 PM 52.0 °F 48.0 °F 86% 29.98 in 10.0 mi NNE 6.9 mph - N/A   Overcast